[[{"header":{"parameterUnit":"m.s-1","parameterCategory":1,"la1":30.2991,"la2":30.254,"lo1":-89.0895,"lo2":-89.0444,"dx":0.0017,"dy":0.0017,"nx":28,"ny":28,"refTime":"2023-01-10T15:00:00:Z","depth":0,"parameterNumber":2,"parameterNumberName":"U-component_of_WINDS"},"data":[0,0,0,0,0,0,0,0,0,0,0,0,0,0,0,0,0,0,0,0,0,0,0,0,0,0,0,0,0,0,0,0,0,0,0,0,0,0,0,0,0,0,0,0,0,0,0,0,0,0,0,0,0,0,0,0,0,0,1.3803,1.3803,0,1.3873,1.3874,1.3875,1.3882,1.3881,1.388,1.3879,1.3956,1.3959,1.3961,0,0,0,0,0,0,0,0,0,0,0,0,0,1.3679,1.3681,1.3802,1.3803,1.3804,1.3873,1.3874,1.3875,1.3882,1.3881,1.388,1.3879,1.3955,1.3958,1.3961,0,0,0,0,0,0,0,0,0,0,0,0,0,1.374,1.3682,1.3802,1.3816,1.3818,1.3873,1.3874,1.3875,1.3882,1.3881,1.388,1.3879,1.3954,1.3958,1.3962,1.4009,0,0,1.3974,1.3976,0,0,0,0,0,0,0,0,1.3736,1.3744,1.3813,1.3815,1.3817,1.3867,1.3858,1.392,1.3882,1.3858,1.3879,1.3878,1.3928,1.3934,1.395,1.4013,1.4016,1.3975,1.3977,1.3979,1.398,0,0,0,0,0,0,0,1.3732,1.3741,1.3831,1.3814,1.3817,1.382,1.3828,1.387,1.3898,1.386,1.386,1.3868,1.3929,1.3946,1.3951,1.4017,1.3975,1.3978,1.3981,1.3982,1.4127,1.4128,0,0,0,0,0,0,1.3725,1.3738,1.3828,1.3833,1.3773,1.3823,1.3832,1.3852,1.3898,1.3903,1.3869,1.3869,1.3939,1.3947,1.3954,1.4015,1.3979,1.3983,1.3985,1.4125,1.4127,1.4128,0,0,0,0,0,0,1.3722,1.3733,1.3825,1.3785,1.3797,1.3827,1.385,1.3854,1.3871,1.3905,1.391,1.3881,1.3939,1.3948,1.3996,1.4017,1.3985,1.3988,1.4124,1.4126,1.4128,1.4135,0,0,0,0,0,0,1.3718,1.3731,1.3748,1.3786,1.3799,1.3864,1.3851,1.3857,1.3878,1.3878,1.3918,1.3923,1.3938,1.399,1.4,1.4022,1.3992,1.4122,1.4124,1.4127,1.4133,1.4137,1.414,0,0,0,0,0,1.3714,1.3748,1.3749,1.376,1.3821,1.3866,1.3874,1.3889,1.388,1.3898,1.392,1.3922,1.4013,1.3995,1.4006,1.403,1.4121,1.4124,1.4127,1.4131,1.4136,1.414,0,0,0,0,0,0,1.3714,1.3753,1.3755,1.3802,1.383,1.3867,1.389,1.3894,1.3927,1.3925,1.3945,1.3954,1.4001,1.402,1.3999,1.408,1.4066,1.4072,1.4066,1.4071,1.4074,1.4069,1.3995,0,0,0,0,0,1.3719,1.375,1.3784,1.3822,1.3836,1.3861,1.3881,1.389,1.3921,1.3934,1.3959,1.399,1.4026,1.4049,1.4084,1.4136,1.4146,1.4158,1.4162,1.4165,1.417,1.4201,1.4207,1.4138,1.4138,1.4138,0,0,1.373,1.3756,1.3774,1.3823,1.3846,1.388,1.3871,1.3906,1.3933,1.3939,1.3986,1.4006,1.4042,1.4092,1.4116,1.411,1.4191,1.4169,1.4171,1.4174,1.4205,1.4211,1.4217,1.4141,1.414,1.414,0,0,1.3769,1.379,1.3825,1.3849,1.3884,1.39,1.3909,1.3945,1.3959,1.4005,1.4012,1.4044,1.4105,1.4131,1.4152,1.4203,1.4207,1.4214,1.4234,1.4264,1.4269,1.4274,1.4295,1.4301,1.4218,1.4218,1.4218,0,1.3779,1.3829,1.3843,1.388,1.3902,1.3909,1.3946,1.3968,1.4013,1.403,1.4022,1.41,1.4124,1.4182,1.4195,1.4211,1.4223,1.421,1.4267,1.4272,1.4277,1.4297,1.4304,1.4219,1.4219,1.4219,1.4219,0,1.3841,1.3876,1.39,1.3943,1.3968,1.4004,1.4026,1.405,1.4058,1.4076,1.4125,1.4155,1.4197,1.4211,1.422,1.4271,1.4267,1.4263,1.425,1.4284,1.4303,1.431,1.422,1.422,1.422,1.4219,0,0,1.388,1.3932,1.3941,1.3961,1.4001,1.4029,1.4067,1.4107,1.4128,1.416,1.4194,1.4246,1.4243,1.4267,1.4279,1.4305,1.4346,1.4298,1.43,1.4308,1.4407,1.4411,1.4419,1.4348,1.435,1.4351,1.4405,0,1.3925,1.3991,1.4006,1.4064,1.4098,1.4106,1.414,1.4169,1.4187,1.422,1.4241,1.4278,1.427,1.4285,1.4312,1.4335,1.4366,1.4331,1.4382,1.4384,1.4374,1.4429,1.4432,1.4482,1.4412,1.4413,1.4414,0,1.3985,1.4018,1.4078,1.4116,1.4131,1.416,1.42,1.423,1.4265,1.4276,1.4304,1.4313,1.4355,1.4339,1.4399,1.4375,1.4397,1.4412,1.4414,1.4421,1.4402,1.4438,1.4498,1.4506,1.4426,1.4425,1.4424,0,1.401,1.4069,1.4114,1.4131,1.4175,1.4197,1.4216,1.4249,1.4273,1.4308,1.4324,1.4364,1.4386,1.4417,1.4438,1.4424,1.4497,1.4482,1.451,1.4509,1.4526,1.4525,1.4591,1.4537,1.4537,1.4537,1.4537,0,1.4059,1.4097,1.4126,1.4154,1.4197,1.4215,1.4258,1.4278,1.4308,1.4341,1.4351,1.4382,1.4407,1.4442,1.4459,1.4507,1.4517,1.4529,1.4533,1.4529,1.4528,1.4544,1.4542,1.4539,1.4538,1.4538,1.4538,0,1.4095,1.4116,1.4165,1.4204,1.4214,1.4245,1.4278,1.4307,1.4325,1.4368,1.4379,1.4409,1.4451,1.4475,1.4528,1.4539,1.4594,1.4595,1.4582,1.4584,1.4611,1.4609,1.4692,1.4705,1.4641,1.4641,1.4642,0,1.4125,1.4154,1.4196,1.4218,1.4238,1.4274,1.4299,1.4319,1.4344,1.4387,1.4411,1.4453,1.4489,1.4556,1.4584,1.4626,1.463,1.4656,1.4636,1.4632,1.4632,1.4631,1.4635,1.466,1.466,1.4661,1.4661,0,1.4177,1.4187,1.4221,1.426,1.4289,1.432,1.4352,1.437,1.4395,1.4424,1.4467,1.4495,1.4549,1.4593,1.4637,1.4659,1.4666,1.4667,1.4676,1.4673,1.4665,1.4671,1.4593,1.4665,1.4665,1.4665,1.4664,1.4664,1.4212,1.4239,1.4273,1.4312,1.4338,1.4368,1.4397,1.4419,1.4455,1.4501,1.4511,1.4557,1.4593,1.4653,1.4676,1.4714,1.4709,1.4722,1.4725,1.4729,1.4731,1.4657,1.4722,1.4722,1.4722,1.4722,1.4722,0,1.4267,1.4289,1.4324,1.4368,1.44,1.4401,1.4437,1.4464,1.4504,1.4536,1.4571,1.4622,1.4664,1.4696,1.474,1.4764,1.4768,1.4775,1.4774,1.478,1.4731,1.472,1.4771,1.4771,1.4771,1.4771,1.4771,1.4771,1.4298,1.4345,1.4359,1.442,1.4443,1.4487,1.4508,1.4536,1.4562,1.4618,1.4653,1.4673,1.4706,1.4753,1.4793,1.4801,1.4818,1.4825,1.4834,1.4788,1.4783,1.4778,1.4768,1.4828,1.4828,1.488,1.488,1.488]},{"header":{"parameterUnit":"m.s-1","parameterCategory":1,"la1":30.2991,"la2":30.254,"lo1":-89.0895,"lo2":-89.0444,"dx":0.0017,"dy":0.0017,"nx":28,"ny":28,"refTime":"2023-01-10T15:00:00:Z","depth":0,"parameterNumber":3,"parameterNumberName":"V-component_of_WINDS"},"data":[0,0,0,0,0,0,0,0,0,0,0,0,0,0,0,0,0,0,0,0,0,0,0,0,0,0,0,0,0,0,0,0,0,0,0,0,0,0,0,0,0,0,0,0,0,0,0,0,0,0,0,0,0,0,0,0,0,0,3.7817,3.7818,0,3.7894,3.7895,3.7896,3.7899,3.7898,3.7897,3.7897,3.7972,3.7975,3.7978,0,0,0,0,0,0,0,0,0,0,0,0,0,3.7669,3.7672,3.7817,3.7818,3.7819,3.7894,3.7895,3.7896,3.7899,3.7898,3.7897,3.7896,3.7971,3.7974,3.7978,0,0,0,0,0,0,0,0,0,0,0,0,0,3.7738,3.7673,3.7817,3.7829,3.7831,3.7894,3.7895,3.7897,3.79,3.7898,3.7897,3.7896,3.797,3.7974,3.7978,3.8032,0,0,3.7991,3.7993,0,0,0,0,0,0,0,0,3.7735,3.7744,3.7827,3.7829,3.7831,3.7886,3.7871,3.7942,3.79,3.7874,3.7897,3.7895,3.7944,3.795,3.7968,3.8036,3.8039,3.7992,3.7994,3.7996,3.7997,0,0,0,0,0,0,0,3.773,3.7741,3.7847,3.7828,3.783,3.7831,3.7839,3.7884,3.7915,3.7876,3.7876,3.7886,3.7945,3.7964,3.797,3.804,3.7992,3.7995,3.7998,3.8,3.8158,3.816,0,0,0,0,0,0,3.7723,3.7737,3.7845,3.785,3.7779,3.7834,3.7844,3.7869,3.7915,3.7921,3.7887,3.7885,3.7957,3.7965,3.7972,3.8041,3.7996,3.8,3.8003,3.8157,3.8159,3.816,0,0,0,0,0,0,3.772,3.7732,3.7842,3.7793,3.7807,3.7838,3.7867,3.7872,3.7891,3.7923,3.7928,3.79,3.7956,3.7966,3.8018,3.8043,3.8002,3.8006,3.8155,3.8157,3.816,3.8176,0,0,0,0,0,0,3.7715,3.7731,3.7753,3.7794,3.781,3.7887,3.7869,3.7874,3.7898,3.7898,3.7937,3.7943,3.7956,3.8012,3.8022,3.8048,3.8009,3.8153,3.8156,3.8159,3.8174,3.8179,3.8183,0,0,0,0,0,3.771,3.7753,3.7754,3.7767,3.7837,3.7888,3.7898,3.7913,3.79,3.7922,3.7943,3.7941,3.8038,3.8017,3.8029,3.8057,3.8151,3.8155,3.8158,3.8171,3.8178,3.8183,0,0,0,0,0,0,3.7711,3.7758,3.776,3.7817,3.7849,3.7889,3.7917,3.7919,3.7954,3.7952,3.7968,3.7977,3.8029,3.8048,3.8023,3.8112,3.8093,3.8099,3.8099,3.8105,3.811,3.8105,3.8013,0,0,0,0,0,3.7719,3.7758,3.7796,3.7842,3.7859,3.7885,3.7908,3.7917,3.795,3.7964,3.7988,3.802,3.8058,3.8082,3.8118,3.8176,3.8185,3.8201,3.8206,3.8209,3.8215,3.8249,3.8257,3.8173,3.8172,3.8172,0,0,3.7733,3.7764,3.7787,3.7844,3.787,3.7909,3.7896,3.7938,3.7967,3.7969,3.8021,3.804,3.8076,3.8132,3.8158,3.8149,3.8241,3.8214,3.8217,3.8221,3.8254,3.8262,3.8269,3.8175,3.8175,3.8174,0,0,3.7781,3.7808,3.7851,3.7878,3.7918,3.7936,3.7946,3.7986,3.8,3.8052,3.8055,3.809,3.8154,3.8181,3.8202,3.8263,3.8263,3.8274,3.83,3.8333,3.834,3.8346,3.8369,3.8377,3.8279,3.8279,3.8279,0,3.7795,3.7856,3.7872,3.7916,3.7941,3.7946,3.7991,3.8015,3.8065,3.8082,3.8072,3.8154,3.8178,3.8242,3.8257,3.8273,3.8286,3.827,3.8338,3.8344,3.835,3.8372,3.8381,3.828,3.828,3.828,3.828,0,3.7871,3.7913,3.7943,3.7994,3.8022,3.8065,3.8088,3.8115,3.8122,3.8141,3.8195,3.8225,3.8268,3.8283,3.829,3.8348,3.8342,3.8334,3.8316,3.8359,3.8381,3.8389,3.8282,3.8281,3.8281,3.8281,0,0,3.7921,3.7983,3.7993,3.8018,3.8063,3.8096,3.8139,3.8184,3.8208,3.8241,3.8279,3.8334,3.8329,3.8353,3.8363,3.8391,3.844,3.8381,3.8382,3.8392,3.8509,3.8516,3.8525,3.844,3.8442,3.8443,3.8506,0,3.7976,3.8056,3.8074,3.8143,3.8183,3.8189,3.8227,3.8259,3.8278,3.8314,3.8334,3.8374,3.8362,3.8378,3.8406,3.8428,3.8464,3.8423,3.8476,3.8477,3.8469,3.8536,3.8544,3.8602,3.8515,3.8516,3.8517,0,3.8051,3.809,3.8163,3.8206,3.8223,3.8258,3.8302,3.8336,3.8372,3.8384,3.8413,3.842,3.8465,3.8444,3.8508,3.848,3.8502,3.8516,3.8519,3.8526,3.8501,3.8547,3.8621,3.863,3.853,3.8529,3.8528,0,3.8084,3.8154,3.8208,3.8227,3.8278,3.8303,3.8324,3.836,3.8386,3.8424,3.8441,3.8482,3.8505,3.8537,3.8555,3.8537,3.8618,3.8597,3.863,3.863,3.8648,3.8647,3.8728,3.8659,3.8658,3.8658,3.8658,0,3.8144,3.819,3.8224,3.8257,3.8308,3.8327,3.8377,3.8399,3.843,3.8468,3.8474,3.8509,3.853,3.8567,3.8581,3.8633,3.8643,3.8654,3.8657,3.8655,3.8654,3.8671,3.8668,3.8661,3.866,3.866,3.8659,0,3.819,3.8215,3.8274,3.8318,3.833,3.8366,3.8404,3.8436,3.8455,3.8503,3.8515,3.8544,3.8589,3.861,3.8664,3.8674,3.8734,3.8733,3.8723,3.8724,3.8757,3.8754,3.8854,3.8869,3.8787,3.8788,3.8788,0,3.8228,3.8264,3.8312,3.8339,3.8363,3.8405,3.8433,3.8453,3.8481,3.8527,3.8554,3.86,3.8638,3.8709,3.8735,3.8777,3.8779,3.8811,3.8785,3.8783,3.8783,3.8781,3.8786,3.8816,3.8817,3.8818,3.8818,0,3.8294,3.8305,3.8346,3.8392,3.8426,3.8462,3.8498,3.8519,3.8545,3.8577,3.8624,3.8654,3.8711,3.8757,3.8801,3.8823,3.8825,3.8826,3.8836,3.8835,3.8828,3.8835,3.8738,3.8824,3.8823,3.8823,3.8823,3.8822,3.8339,3.8372,3.8413,3.8458,3.8488,3.8522,3.8556,3.858,3.862,3.8671,3.8679,3.873,3.8767,3.8827,3.885,3.889,3.8883,3.8896,3.8901,3.8904,3.8908,3.882,3.8898,3.8898,3.8897,3.8897,3.8897,0,3.8407,3.8434,3.8476,3.8528,3.8564,3.8565,3.8605,3.8635,3.8681,3.8715,3.8753,3.8809,3.8853,3.8883,3.8929,3.8955,3.8957,3.8966,3.8965,3.8971,3.891,3.8898,3.8964,3.8964,3.8964,3.8964,3.8964,3.8964,3.8448,3.8505,3.8521,3.8592,3.8618,3.867,3.8693,3.8725,3.8753,3.8815,3.8854,3.8873,3.8907,3.8955,3.8996,3.9004,3.9021,3.9031,3.9038,3.8982,3.8975,3.8968,3.8957,3.9034,3.9034,3.9096,3.9096,3.9097]}]]